F4IVW-13 Weather Reports


Display with metric or nautical units.
time (UTC)temp
F
wind
direction
speed
MPH
gust
MPH
rain 1hr
in
rain 24hr
in
rain mn
in
humidity
%
barometer
mb
20260506114840 55 0 0.0 0.0 0.00 0.00 0.14 99 1013.8
20260506114322 55 0 0.0 0.0 0.07 0.00 0.14 99 1013.7
20260506113813 54 0 0.0 0.0 0.07 0.00 0.14 99 1013.7
20260506113248 55 0 0.0 0.0 0.06 0.00 0.13 99 1013.8
20260506112737 55 0 0.0 0.0 0.05 0.00 0.12 99 1013.7
20260506112212 56 0 0.0 0.0 0.02 0.00 0.08 99 1013.8
20260506111655 57 0 0.0 0.0 0.01 0.00 0.07 99 1013.8
20260506110622 59 0 0.0 0.0 0.00 0.00 0.06 99 1013.5
20260506110110 59 0 0.0 0.0 0.00 0.00 0.06 99 1013.5
20260506105544 60 0 0.0 0.0 0.00 0.00 0.06 99 1013.6
20260506105024 60 0 0.0 0.0 0.00 0.00 0.06 99 1013.7
20260506104507 60 0 0.0 0.0 0.05 0.00 0.06 99 1013.7
20260506103949 59 0 0.0 0.0 0.05 0.00 0.06 99 1013.7
20260506103432 56 0 0.0 0.0 0.05 0.00 0.06 99 1013.7
20260506102921 55 0 0.0 0.0 0.05 0.00 0.06 99 1013.7
20260506102356 54 0 0.0 0.0 0.05 0.00 0.06 99 1013.8
20260506101839 54 0 0.0 0.0 0.05 0.00 0.06 99 1013.8
20260506101322 54 0 0.0 0.0 0.05 0.00 0.06 99 1013.8
20260506100805 54 0 0.0 0.0 0.05 0.00 0.06 99 1013.8
20260506100248 55 0 0.0 0.0 0.04 0.00 0.05 99 1013.5
20260506095740 57 0 0.0 0.0 0.03 0.00 0.04 99 1013.6
20260506094655 58 0 0.0 0.0 0.00 0.00 0.01 99 1013.5
20260506094137 57 0 0.0 0.0 0.00 0.00 0.01 99 1013.5
20260506093621 56 0 0.0 0.0 0.00 0.00 0.01 99 1013.5
20260506093103 56 0 0.0 0.0 0.00 0.00 0.01 99 1013.4
20260506092546 54 0 0.0 0.0 0.00 0.00 0.01 99 1013.3
20260506092037 53 0 0.0 0.0 0.00 0.00 0.01 99 1013.2
20260506091511 53 0 0.0 0.0 0.00 0.00 0.01 99 1013.3
20260506090954 53 0 0.0 0.0 0.00 0.00 0.01 99 1013.3
20260506090440 54 0 0.0 0.0 0.00 0.00 0.01 99 1013.2
20260506085919 54 0 0.0 0.0 0.00 0.00 0.01 99 1013.1
20260506085402 54 0 0.0 0.0 0.00 0.00 0.01 99 1012.9
20260506084851 54 0 0.0 0.0 0.00 0.00 0.01 99 1012.9
20260506084325 54 0 0.0 0.0 0.01 0.00 0.01 99 1012.9
20260506083808 56 0 0.0 0.0 0.01 0.00 0.01 99 1012.9
20260506083254 59 0 0.0 0.0 0.01 0.00 0.01 99 1012.9
20260506082733 60 0 0.0 0.0 0.00 0.00 0.00 99 1012.9
20260506082216 61 0 0.0 0.0 0.00 0.00 0.00 99 1012.8
20260506081707 59 0 0.0 0.0 0.00 0.00 0.00 99 1012.8
20260506081139 57 0 0.0 0.0 0.00 0.00 0.00 99 1012.9
20260506080619 54 0 0.0 0.0 0.00 0.00 0.00 99 1012.9
20260506073434 54 0 0.0 0.0 0.00 0.00 0.31 99 1012.9
20260506072917 54 0 0.0 0.0 0.00 0.00 0.31 99 1013.0
20260506071841 55 0 0.0 0.0 0.00 0.00 0.31 99 1013.0
20260506071341 54 0 0.0 0.0 0.00 0.00 0.31 99 1013.0
20260506070811 51 0 0.0 0.0 0.00 0.00 0.31 99 1013.0
20260506062022 51 0 0.0 0.0 0.00 0.00 0.28 99 1012.8
20260506061505 51 0 0.0 0.0 0.00 0.00 0.28 99 1012.8
20260506060946 50 0 0.0 0.0 0.00 0.00 0.28 99 1012.9
20260506060437 50 0 0.0 0.0 0.00 0.00 0.28 99 1012.8
20260506051137 49 0 0.0 0.0 0.00 0.00 0.28 99 1012.5
20260506050620 49 0 0.0 0.0 0.00 0.00 0.28 99 1012.4
20260506050112 49 0 0.0 0.0 0.00 0.00 0.28 99 1012.4
20260506045029 49 0 0.0 0.0 0.00 0.00 0.28 99 1012.5
20260506044511 49 0 0.0 0.0 0.01 0.00 0.28 99 1012.6
20260506043952 49 0 0.0 0.0 0.01 0.00 0.28 99 1012.7
20260506043433 49 0 0.0 0.0 0.01 0.00 0.28 99 1012.7
20260506042924 49 0 0.0 0.0 0.01 0.00 0.28 99 1012.6
20260506042359 49 0 0.0 0.0 0.01 0.00 0.28 99 1012.6
20260506041842 49 0 0.0 0.0 0.01 0.00 0.28 99 1012.5
20260506041325 49 0 0.0 0.0 0.01 0.00 0.28 99 1012.4
20260506040807 49 0 0.0 0.0 0.00 0.00 0.27 99 1012.7
20260506040250 49 0 0.0 0.0 0.00 0.00 0.27 99 1012.9
20260506035739 49 0 0.0 0.0 0.00 0.00 0.27 99 1012.9
20260506035214 49 0 0.0 0.0 0.00 0.00 0.27 99 1012.9
20260506034657 49 0 0.0 0.0 0.00 0.00 0.27 99 1012.9
20260506034139 49 0 0.0 0.0 0.04 0.00 0.27 99 1012.9
20260506033622 49 0 0.0 0.0 0.04 0.00 0.27 99 1013.1
20260506033105 49 0 0.0 0.0 0.04 0.00 0.27 99 1013.2
20260506032557 49 0 0.0 0.0 0.04 0.00 0.27 99 1013.2
20260506032029 49 0 0.0 0.0 0.03 0.00 0.26 99 1013.2
20260506031512 49 0 0.0 0.0 0.03 0.00 0.26 99 1013.3
20260506030955 49 0 0.0 0.0 0.03 0.00 0.26 99 1013.3
20260506030438 49 0 0.0 0.0 0.03 0.00 0.26 99 1013.4
20260506025921 49 0 0.0 0.0 0.02 0.00 0.25 99 1013.4
20260506025413 49 0 0.0 0.0 0.01 0.00 0.24 99 1013.5
20260506024847 49 0 0.0 0.0 0.00 0.00 0.23 99 1013.5
20260506024329 49 0 0.0 0.0 0.00 0.00 0.23 99 1013.4
20260506023812 49 0 0.0 0.0 0.00 0.00 0.23 99 1013.4
20260506023255 49 0 0.0 0.0 0.00 0.00 0.23 99 1013.3
20260506022739 49 0 0.0 0.0 0.00 0.00 0.23 99 1013.2
20260506022230 49 0 0.0 0.0 0.00 0.00 0.23 99 1013.2
20260506021704 49 0 0.0 0.0 0.00 0.00 0.23 99 1013.2
20260506021147 49 0 0.0 0.0 0.00 0.00 0.23 99 1013.2
20260506020628 49 0 0.0 0.0 0.00 0.00 0.23 99 1013.3
20260506020111 49 0 0.0 0.0 0.00 0.00 0.23 99 1013.0
20260506015552 49 0 0.0 0.0 0.00 0.00 0.23 99 1013.0
20260506015041 49 0 0.0 0.0 0.00 0.00 0.23 99 1013.0
20260506014515 48 0 0.0 0.0 0.00 0.00 0.23 99 1013.0
20260506013958 48 0 0.0 0.0 0.00 0.00 0.23 99 1013.0
20260506013441 48 0 0.0 0.0 0.00 0.00 0.23 99 1013.1
20260506012922 48 0 0.0 0.0 0.00 0.00 0.23 99 1013.2
20260506012405 48 0 0.0 0.0 0.00 0.00 0.23 99 1013.3
20260506011857 48 0 0.0 0.0 0.00 0.00 0.23 99 1013.3
20260506011331 48 0 0.0 0.0 0.00 0.00 0.23 99 1013.3
20260506010814 48 0 0.0 0.0 0.00 0.00 0.23 99 1013.3
20260506010254 48 0 0.0 0.0 0.00 0.00 0.23 99 1013.4
20260506005738 49 0 0.0 0.0 0.00 0.00 0.23 99 1013.5
20260506005221 49 0 0.0 0.0 0.00 0.00 0.23 99 1013.6
20260506004712 49 0 0.0 0.0 0.00 0.00 0.23 99 1013.6
20260506004146 49 0 0.0 0.0 0.03 0.00 0.23 99 1013.6
20260506003627 49 0 0.0 0.0 0.03 0.00 0.23 99 1013.6
20260506003113 49 0 0.0 0.0 0.03 0.00 0.23 99 1013.6
20260506002550 49 0 0.0 0.0 0.02 0.00 0.22 99 1013.6
20260506002033 49 0 0.0 0.0 0.02 0.00 0.22 99 1013.8
20260506001525 50 0 0.0 0.0 0.02 0.00 0.22 99 1013.7
20260506000959 50 0 0.0 0.0 0.02 0.00 0.22 99 1013.7
20260506000442 51 0 0.0 0.0 0.02 0.00 0.22 99 1013.7
20260505235925 51 0 0.0 0.0 0.01 0.00 0.20 99 1013.9
20260505235405 51 0 0.0 0.0 0.01 0.00 0.20 99 1014.0
20260505234849 50 0 0.0 0.0 0.00 0.00 0.19 99 1014.2
20260505234339 50 0 0.0 0.0 0.00 0.00 0.19 99 1014.0
20260505233811 50 0 0.0 0.0 0.00 0.00 0.19 99 1014.0
20260505233254 50 0 0.0 0.0 0.00 0.00 0.19 99 1014.0
20260505232738 50 0 0.0 0.0 0.00 0.00 0.19 99 1013.9
20260505232218 49 0 0.0 0.0 0.00 0.00 0.19 99 1013.8
20260505231659 49 0 0.0 0.0 0.00 0.00 0.19 99 1013.9
20260505231149 49 0 0.0 0.0 0.00 0.00 0.19 99 1013.9
20260505230623 49 0 0.0 0.0 0.00 0.00 0.19 99 1013.9
20260505230104 49 0 0.0 0.0 0.00 0.00 0.19 99 1013.9
20260505225544 49 0 0.0 0.0 0.00 0.00 0.19 99 1013.9
20260505225028 49 0 0.0 0.0 0.00 0.00 0.19 99 1013.9
20260505224510 49 0 0.0 0.0 0.00 0.00 0.19 99 1014.0
20260505224001 49 0 0.0 0.0 0.00 0.00 0.19 99 1014.0
20260505223432 49 0 0.0 0.0 0.00 0.00 0.19 99 1014.0
20260505222913 50 0 0.0 0.0 0.00 0.00 0.19 99 1014.0
20260505222356 50 0 0.0 0.0 0.00 0.00 0.19 99 1014.1
20260505221837 50 0 0.0 0.0 0.00 0.00 0.19 99 1014.1
20260505221320 50 0 0.0 0.0 0.00 0.00 0.19 99 1014.1
20260505220812 51 0 0.0 0.0 0.00 0.00 0.19 99 1014.0
20260505220243 51 0 0.0 0.0 0.00 0.00 0.19 99 1014.1
20260505215726 51 0 0.0 0.0 0.00 0.00 0.19 99 1014.1
20260505215209 51 0 0.0 0.0 0.00 0.00 0.19 99 1014.2
20260505214652 51 0 0.0 0.0 0.00 0.00 0.19 99 1014.1
20260505214135 51 0 0.0 0.0 0.00 0.00 0.19 99 1014.1
20260505213624 51 0 0.0 0.0 0.00 0.00 0.19 99 1014.2
20260505213056 51 0 0.0 0.0 0.00 0.00 0.19 99 1014.3
20260505212539 51 0 0.0 0.0 0.00 0.00 0.19 99 1014.3
20260505212022 51 0 0.0 0.0 0.00 0.00 0.19 99 1014.3
20260505211505 51 0 0.0 0.0 0.00 0.00 0.19 99 1014.4
20260505210948 51 0 0.0 0.0 0.00 0.00 0.19 99 1014.4
20260505210440 51 0 0.0 0.0 0.00 0.00 0.19 99 1014.4
20260505205914 51 0 0.0 0.0 0.00 0.00 0.19 99 1014.4
20260505205357 51 0 0.0 0.0 0.00 0.00 0.19 99 1014.4
20260505204839 51 0 0.0 0.0 0.00 0.00 0.19 99 1014.4
20260505204322 51 0 0.0 0.0 0.00 0.00 0.19 99 1014.4
20260505203807 51 0 0.0 0.0 0.00 0.00 0.19 99 1014.3
20260505203254 52 0 0.0 0.0 0.00 0.00 0.19 99 1014.2
20260505202728 52 0 0.0 0.0 0.00 0.00 0.19 99 1014.2
20260505202211 51 0 0.0 0.0 0.00 0.00 0.19 99 1014.2
20260505201656 51 0 0.0 0.0 0.00 0.00 0.19 99 1014.3
20260505201138 51 0 0.0 0.0 0.00 0.00 0.19 99 1014.1
20260505200618 51 0 0.0 0.0 0.00 0.00 0.19 99 1014.1
20260505200110 51 0 0.0 0.0 0.00 0.00 0.19 99 1014.1
20260505195544 51 0 0.0 0.0 0.00 0.00 0.19 99 1014.0
20260505195027 51 0 0.0 0.0 0.00 0.00 0.19 99 1013.9
20260505194509 51 0 0.0 0.0 0.00 0.00 0.19 99 1013.9
20260505193948 51 0 0.0 0.0 0.00 0.00 0.19 99 1013.8
20260505193431 52 0 0.0 0.0 0.00 0.00 0.19 99 1013.8
20260505192923 52 0 0.0 0.0 0.00 0.00 0.19 99 1013.7
20260505192356 53 0 0.0 0.0 0.00 0.00 0.19 99 1013.7
20260505191839 53 0 0.0 0.0 0.00 0.00 0.19 99 1013.6
20260505191322 53 0 0.0 0.0 0.00 0.00 0.19 99 1013.6
20260505190805 54 0 0.0 0.0 0.00 0.00 0.19 99 1013.6
20260505190248 54 0 0.0 0.0 0.00 0.00 0.19 99 1013.5
20260505185737 54 0 0.0 0.0 0.00 0.00 0.19 99 1013.5
20260505185212 54 0 0.0 0.0 0.00 0.00 0.19 99 1013.5
20260505184655 55 0 0.0 0.0 0.00 0.00 0.19 99 1013.5
20260505184137 55 0 0.0 0.0 0.00 0.00 0.19 99 1013.5
20260505183618 56 0 0.0 0.0 0.00 0.00 0.19 99 1013.4
20260505183101 57 0 0.0 0.0 0.00 0.00 0.19 99 1013.3
20260505182552 58 0 0.0 0.0 0.00 0.00 0.19 99 1013.3
20260505182026 59 0 0.0 0.0 0.00 0.00 0.19 99 1013.3
20260505181509 60 0 0.0 0.0 0.00 0.00 0.19 99 1013.3
20260505180952 61 0 0.0 0.0 0.00 0.00 0.19 99 1013.4
20260505180435 60 0 0.0 0.0 0.00 0.00 0.19 99 1013.4
20260505175918 58 0 0.0 0.0 0.00 0.00 0.19 99 1013.3
20260505175412 58 0 0.0 0.0 0.00 0.00 0.19 99 1013.4
20260505174843 58 0 0.0 0.0 0.00 0.00 0.19 99 1013.4
20260505174324 58 0 0.0 0.0 0.00 0.00 0.19 99 1013.3
20260505173807 59 0 0.0 0.0 0.00 0.00 0.19 99 1013.4
20260505173250 60 0 0.0 0.0 0.00 0.00 0.19 99 1013.4
20260505172734 59 0 0.0 0.0 0.00 0.00 0.19 99 1013.3
20260505172224 59 0 0.0 0.0 0.00 0.00 0.19 99 1013.4
20260505171656 60 0 0.0 0.0 0.00 0.00 0.19 99 1013.3
20260505171142 60 0 0.0 0.0 0.00 0.00 0.19 99 1013.4
20260505170619 60 0 0.0 0.0 0.00 0.00 0.19 99 1013.4
20260505170106 61 0 0.0 0.0 0.00 0.00 0.19 99 1013.3
20260505165025 60 0 0.0 0.0 0.00 0.00 0.19 99 1013.4
20260505164516 61 0 0.0 0.0 0.00 0.00 0.19 99 1013.4
20260505163952 62 0 0.0 0.0 0.00 0.00 0.19 99 1013.4
20260505163431 64 0 0.0 0.0 0.00 0.00 0.19 99 1013.4
20260505162356 62 0 0.0 0.0 0.00 0.00 0.19 99 1013.5
20260505161836 62 0 0.0 0.0 0.00 0.00 0.19 99 1013.5
20260505161319 63 0 0.0 0.0 0.00 0.00 0.19 99 1013.6
20260505160810 64 0 0.0 0.0 0.00 0.00 0.19 99 1013.5
20260505160245 64 0 0.0 0.0 0.00 0.00 0.19 99 1013.6
20260505153102 62 0 0.0 0.0 0.00 0.00 0.19 99 1013.3
20260505152545 62 0 0.0 0.0 0.00 0.00 0.19 99 1013.4
20260505151505 61 0 0.0 0.0 0.00 0.00 0.19 99 1013.4
20260505150951 62 0 0.0 0.0 0.00 0.00 0.19 99 1013.4
20260505150436 62 0 0.0 0.0 0.00 0.00 0.19 99 1013.4
20260505140611 61 0 0.0 0.0 0.00 0.00 0.19 99 1013.6
20260505130243 59 0 0.0 0.0 0.00 0.00 0.19 99 1014.1
20260505124646 58 0 0.0 0.0 0.00 0.00 0.19 99 1014.1
20260505123615 58 0 0.0 0.0 0.01 0.00 0.19 99 1014.2
20260505123048 58 0 0.0 0.0 0.01 0.00 0.19 99 1014.3
20260505122533 57 0 0.0 0.0 0.01 0.00 0.19 99 1014.3
20260505122014 57 0 0.0 0.0 0.01 0.00 0.19 99 1014.3
20260505120420 56 0 0.0 0.0 0.01 0.00 0.19 99 1014.3